Starlink 30544

operational
NORAD ID: 58055 Int'l Des: 2023-158 Owner: SPXS Country: US Constellation: starlink
LEOCIRCULAR

关于 Starlink 30544

正在加载描述...

实时位置

正在加载3D地球...

即将过境

高度历史

Altitude vs Time

uPlot chart will show altitude changes over time

两行轨道根数

1 58055U 23158E 25353.66132378 .00001029 00000-0 91255-4 0 9994
2 58055 43.0038 105.1268 0004629 288.2877 71.7461 15.02534724121495
Epoch: Dec 19, 2025 • Age: 7 hours

当前状态

高度 565.2 km
速度 7.58 km/s
星下点 -28.23°S, 119.1°W
发射日期 Oct 13, 2023
运行时间 2.1 years
类型 internet

技术详情

分类 Payload
质量 730.00 kg
干质量 700.00 kg
总质量 730.00 kg
长度 0.30 m
直径 4.10 m
跨度 29.00 m
形状 Box + pan
制造商 SPXS
平台类型 Starlink V2M
阶段状态 In Orbit
所有者/国家 SPXS/US

大型星座

Loading constellations...